Location: Aytr�
(46.1357°N, 1.1145°W)
Time: 00:59:07
(UTC+00:00)

ISS - Pass Details

Date: 26 September 2021
Orbit: 417 x 423 km, 51.6° (Epoch: 24 October)

Event Time Altitude Azimuth Distance (km) Brightness Sun altitude
Rises 20:32:22 0° 296° (WNW) 2,367 1.4 -27.2°
Reaches altitude 10° 20:34:31 10° 302° (WNW) 1,503 0.0 -27.6°
Enters shadow 20:35:50 21° 311° (NW) 1,002 -1.2 -27.8°
